Starlink 30953

operational
NORAD ID: 58491 Int'l Des: 2023-186 Owner: SPXS Country: US Constellation: starlink
LEOCIRCULAR

Starlink 30953について

説明を読み込み中...

リアルタイム位置

3D地球を読み込み中...

次回通過

高度履歴

Altitude vs Time

uPlot chart will show altitude changes over time

軌道要素

1 58491U 23186U 25304.63942469 .00000136 00000-0 14516-4 0 9995
2 58491 43.0046 276.3076 0003678 267.3374 92.7056 15.27581174108158
Epoch: Oct 31, 2025 • Age: 17 hours

現在のステータス

高度 491.3 km
速度 7.62 km/s
衛星直下点 -36.01°S, 18.92°W
打ち上げ日 Dec 3, 2023
運用期間 1.9 years
タイプ internet

技術仕様

分類 Payload
質量 730.00 kg
乾燥質量 700.00 kg
総質量 730.00 kg
長さ 0.30 m
直径 4.10 m
スパン 29.00 m
形状 Box + pan
製造者 SPXS
バスタイプ Starlink V2M
フェーズステータス In Orbit
所有者/国 SPXS/US

大規模コンステレーション

Loading constellations...